Time,TemperatureF,DewpointF,PressureIn,WindDirection,WindDirectionDegrees,WindSpeedMPH,WindSpeedGustMPH,Humidity,HourlyPrecipIn,Conditions,Clouds,dailyrainin,SoftwareType,DateUTC
2013-05-25 00:00:00,66.3,52.4,30.06,SSE,160,8.0,8.0,61,0.00,,,0.00,Wunderground v.1.15,2013-05-25 05:00:00,
2013-05-25 00:10:00,66.2,52.3,30.05,SSE,154,8.0,9.0,61,0.00,,,0.00,Wunderground v.1.15,2013-05-25 05:10:00,
2013-05-25 00:15:00,66.1,52.3,30.04,SSE,152,9.0,10.0,61,0.00,,,0.00,Wunderground v.1.15,2013-05-25 05:15:00,
2013-05-25 00:25:00,65.8,52.0,30.04,SE,141,8.0,10.0,61,0.00,,,0.00,Wunderground v.1.15,2013-05-25 05:25:00,
2013-05-25 00:35:00,65.6,51.8,30.04,SE,146,7.0,10.0,61,0.00,,,0.00,Wunderground v.1.15,2013-05-25 05:35:00,
2013-05-25 00:45:00,65.5,51.2,30.04,SE,139,9.0,15.0,60,0.00,,,0.00,Wunderground v.1.15,2013-05-25 05:45:00,
2013-05-25 00:55:00,65.3,51.5,30.04,SE,129,8.0,9.0,61,0.00,,,0.00,Wunderground v.1.15,2013-05-25 05:55:00,
2013-05-25 01:00:00,65.2,51.0,30.03,SE,135,9.0,9.0,60,0.00,,,0.00,Wunderground v.1.15,2013-05-25 06:00:00,
2013-05-25 01:05:00,65.2,51.4,30.03,SE,143,9.0,10.0,61,0.00,,,0.00,Wunderground v.1.15,2013-05-25 06:05:00,
2013-05-25 01:15:00,64.8,51.5,30.02,SE,129,9.0,9.0,62,0.00,,,0.00,Wunderground v.1.15,2013-05-25 06:15:00,
2013-05-25 01:20:00,64.8,51.5,30.02,SSE,148,9.0,9.0,62,0.00,,,0.00,Wunderground v.1.15,2013-05-25 06:20:00,
2013-05-25 01:30:00,64.8,51.5,30.03,SSE,153,8.0,8.0,62,0.00,,,0.00,Wunderground v.1.15,2013-05-25 06:30:00,
2013-05-25 01:40:00,64.7,50.9,30.01,ESE,122,10.0,13.0,61,0.00,,,0.00,Wunderground v.1.15,2013-05-25 06:40:00,
2013-05-25 01:50:00,64.6,50.8,30.01,SSE,158,10.0,10.0,61,0.00,,,0.00,Wunderground v.1.15,2013-05-25 06:50:00,
2013-05-25 02:00:00,64.4,50.7,30.01,SE,143,9.0,9.0,61,0.00,,,0.00,Wunderground v.1.15,2013-05-25 07:00:00,
2013-05-25 02:10:00,64.2,50.5,30.00,SE,129,9.0,11.0,61,0.00,,,0.00,Wunderground v.1.15,2013-05-25 07:10:00,
2013-05-25 02:20:00,64.2,50.5,30.00,SSE,148,9.0,9.0,61,0.00,,,0.00,Wunderground v.1.15,2013-05-25 07:20:00,
2013-05-25 02:30:00,64.1,50.4,30.00,SSE,149,9.0,12.0,61,0.00,,,0.00,Wunderground v.1.15,2013-05-25 07:30:00,
2013-05-25 02:40:00,64.0,50.3,30.00,SE,135,10.0,10.0,61,0.00,,,0.00,Wunderground v.1.15,2013-05-25 07:40:00,
2013-05-25 02:50:00,64.1,50.4,29.99,ESE,122,11.0,11.0,61,0.00,,,0.00,Wunderground v.1.15,2013-05-25 07:50:00,
2013-05-25 03:00:00,63.8,50.5,30.00,South,172,9.0,10.0,62,0.00,,,0.00,Wunderground v.1.15,2013-05-25 08:00:00,
2013-05-25 03:10:00,63.9,50.6,29.99,SE,135,10.0,10.0,62,0.00,,,0.00,Wunderground v.1.15,2013-05-25 08:10:00,
2013-05-25 03:15:00,63.9,50.6,29.98,SE,125,10.0,14.0,62,0.00,,,0.00,Wunderground v.1.15,2013-05-25 08:15:00,
2013-05-25 03:25:00,63.8,50.5,29.97,SE,140,9.0,10.0,62,0.00,,,0.00,Wunderground v.1.15,2013-05-25 08:25:00,
2013-05-25 03:35:00,63.8,50.5,29.96,ESE,120,10.0,12.0,62,0.00,,,0.00,Wunderground v.1.15,2013-05-25 08:35:00,
2013-05-25 03:45:00,63.9,51.1,29.97,SSE,148,11.0,12.0,63,0.00,,,0.00,Wunderground v.1.15,2013-05-25 08:45:00,
2013-05-25 03:55:00,64.0,50.7,29.97,SE,146,12.0,12.0,62,0.00,,,0.00,Wunderground v.1.15,2013-05-25 08:55:00,
2013-05-25 04:01:00,64.0,51.1,29.97,SE,139,12.0,12.0,63,0.00,,,0.00,Wunderground v.1.15,2013-05-25 09:01:00,
2013-05-25 04:10:00,64.0,51.6,29.98,SSE,165,12.0,14.0,64,0.00,,,0.00,Wunderground v.1.15,2013-05-25 09:10:00,
2013-05-25 04:15:00,63.5,52.7,29.99,South,174,12.0,14.0,68,0.00,,,0.00,Wunderground v.1.15,2013-05-25 09:15:00,
2013-05-25 04:25:00,62.3,52.4,29.99,South,180,9.0,11.0,70,0.00,,,0.00,Wunderground v.1.15,2013-05-25 09:25:00,
2013-05-25 04:35:00,62.1,52.6,30.00,SW,219,7.0,9.0,71,0.00,,,0.00,Wunderground v.1.15,2013-05-25 09:35:00,
2013-05-25 04:40:00,62.1,53.3,30.02,WSW,242,6.0,6.0,73,0.00,,,0.00,Wunderground v.1.15,2013-05-25 09:40:00,
2013-05-25 04:45:00,61.8,53.8,30.04,West,263,5.0,7.0,75,0.00,,,0.00,Wunderground v.1.15,2013-05-25 09:45:00,
2013-05-25 04:55:00,61.0,54.1,30.04,West,281,3.0,4.0,78,0.00,,,0.00,Wunderground v.1.15,2013-05-25 09:55:00,
2013-05-25 05:00:00,60.6,54.4,30.02,WSW,255,2.0,2.0,80,0.21,,,0.02,Wunderground v.1.15,2013-05-25 10:00:00,
2013-05-25 05:10:00,59.6,54.4,29.99,SSE,156,4.0,6.0,83,0.34,,,0.06,Wunderground v.1.15,2013-05-25 10:10:00,
2013-05-25 05:20:00,58.8,54.6,29.98,SE,142,6.0,10.0,86,0.24,,,0.09,Wunderground v.1.15,2013-05-25 10:20:00,
2013-05-25 05:30:00,58.2,55.0,29.98,SE,145,8.0,8.0,89,0.18,,,0.12,Wunderground v.1.15,2013-05-25 10:30:00,
2013-05-25 05:40:00,57.8,55.2,29.98,SE,129,7.0,7.0,91,0.35,,,0.17,Wunderground v.1.15,2013-05-25 10:40:00,
2013-05-25 05:50:00,57.5,55.5,29.95,SE,124,7.0,7.0,93,0.25,,,0.21,Wunderground v.1.15,2013-05-25 10:50:00,
2013-05-25 06:00:00,57.7,56.0,29.96,SE,137,6.0,7.0,94,0.15,,,0.23,Wunderground v.1.15,2013-05-25 11:00:00,
2013-05-25 06:10:00,58.0,56.6,29.96,SSE,159,6.0,6.0,95,0.13,,,0.25,Wunderground v.1.15,2013-05-25 11:10:00,
2013-05-25 06:20:00,58.8,57.7,30.02,West,263,7.0,8.0,96,0.05,,,0.25,Wunderground v.1.15,2013-05-25 11:20:00,
2013-05-25 06:30:00,58.9,57.5,30.02,NW,315,6.0,6.0,95,0.11,,,0.27,Wunderground v.1.15,2013-05-25 11:30:00,
2013-05-25 06:40:00,59.0,57.9,29.99,SE,145,5.0,5.0,96,0.26,,,0.30,Wunderground v.1.15,2013-05-25 11:40:00,
2013-05-25 06:50:00,59.7,58.6,30.00,SW,218,6.0,6.0,96,0.06,,,0.30,Wunderground v.1.15,2013-05-25 11:50:00,
2013-05-25 06:55:00,60.0,58.9,29.99,SSE,160,6.0,6.0,96,0.04,,,0.31,Wunderground v.1.15,2013-05-25 11:55:00,
2013-05-25 07:00:00,60.2,59.1,29.99,SSW,195,6.0,7.0,96,0.04,,,0.31,Wunderground v.1.15,2013-05-25 12:00:00,
2013-05-25 07:10:00,60.5,59.4,30.01,WSW,256,6.0,6.0,96,0.00,,,0.31,Wunderground v.1.15,2013-05-25 12:10:00,
2013-05-25 07:20:00,60.7,59.6,29.99,SSW,212,5.0,7.0,96,0.00,,,0.31,Wunderground v.1.15,2013-05-25 12:20:00,
2013-05-25 07:30:00,60.7,59.6,29.96,SSE,159,8.0,11.0,96,0.00,,,0.31,Wunderground v.1.15,2013-05-25 12:30:00,
2013-05-25 07:40:00,60.8,59.7,29.98,NW,311,8.0,8.0,96,0.00,,,0.32,Wunderground v.1.15,2013-05-25 12:40:00,
2013-05-25 07:50:00,60.9,59.8,30.03,WNW,293,5.0,6.0,96,0.00,,,0.32,Wunderground v.1.15,2013-05-25 12:50:00,
2013-05-25 08:00:00,60.9,59.8,30.03,West,280,4.0,4.0,96,0.00,,,0.33,Wunderground v.1.15,2013-05-25 13:00:00,
2013-05-25 08:10:00,60.9,59.8,30.02,WNW,300,2.0,4.0,96,0.00,,,0.33,Wunderground v.1.15,2013-05-25 13:10:00,
2013-05-25 08:15:00,60.9,59.8,30.05,West,264,3.0,4.0,96,0.00,,,0.33,Wunderground v.1.15,2013-05-25 13:15:00,
2013-05-25 08:25:00,60.9,59.8,30.05,West,259,3.0,3.0,96,0.00,,,0.33,Wunderground v.1.15,2013-05-25 13:25:00,
2013-05-25 08:35:00,60.8,59.7,30.04,SSW,211,2.0,4.0,96,0.00,,,0.33,Wunderground v.1.15,2013-05-25 13:35:00,
2013-05-25 08:45:00,60.8,59.7,30.05,SW,226,4.0,8.0,96,0.00,,,0.33,Wunderground v.1.15,2013-05-25 13:45:00,
2013-05-25 08:55:00,61.2,60.1,30.06,WSW,248,7.0,8.0,96,0.00,,,0.33,Wunderground v.1.15,2013-05-25 13:55:00,
2013-05-25 09:00:00,61.4,60.2,30.06,WSW,251,6.0,6.0,96,0.00,,,0.33,Wunderground v.1.15,2013-05-25 14:00:00,
2013-05-25 09:10:00,61.6,60.4,30.05,SW,224,6.0,6.0,96,0.00,,,0.33,Wunderground v.1.15,2013-05-25 14:10:00,
2013-05-25 09:15:00,61.6,60.4,30.04,SSW,195,6.0,6.0,96,0.00,,,0.34,Wunderground v.1.15,2013-05-25 14:15:00,
2013-05-25 09:25:00,61.6,60.4,29.97,SSE,160,8.0,11.0,96,0.00,,,0.34,Wunderground v.1.15,2013-05-25 14:25:00,
2013-05-25 09:35:00,61.6,60.4,29.92,SE,127,10.0,11.0,96,0.00,,,0.34,Wunderground v.1.15,2013-05-25 14:35:00,
2013-05-25 09:45:00,61.8,60.6,29.91,East,91,6.0,8.0,96,0.00,,,0.34,Wunderground v.1.15,2013-05-25 14:45:00,
2013-05-25 09:55:00,62.3,61.1,29.91,SE,129,5.0,5.0,96,0.00,,,0.34,Wunderground v.1.15,2013-05-25 14:55:00,
2013-05-25 10:00:00,62.6,61.4,29.90,East,85,5.0,5.0,96,0.00,,,0.34,Wunderground v.1.15,2013-05-25 15:00:00,
2013-05-25 10:10:00,63.3,61.8,29.93,SSE,150,4.0,4.0,95,0.00,,,0.34,Wunderground v.1.15,2013-05-25 15:10:00,
2013-05-25 10:20:00,63.9,62.4,29.94,ESE,107,4.0,6.0,95,0.00,,,0.34,Wunderground v.1.15,2013-05-25 15:20:00,
2013-05-25 10:30:00,64.5,62.7,29.95,SE,136,4.0,4.0,94,0.00,,,0.34,Wunderground v.1.15,2013-05-25 15:30:00,
2013-05-25 10:35:00,65.1,63.3,29.96,ESE,115,3.0,4.0,94,0.00,,,0.34,Wunderground v.1.15,2013-05-25 15:35:00,
2013-05-25 10:45:00,66.5,64.4,29.96,SE,135,4.0,7.0,93,0.00,,,0.34,Wunderground v.1.15,2013-05-25 15:45:00,
2013-05-25 10:55:00,67.7,64.7,29.97,ESE,120,4.0,5.0,90,0.00,,,0.34,Wunderground v.1.15,2013-05-25 15:55:00,
2013-05-25 11:00:00,68.1,64.1,29.97,SE,141,4.0,4.0,87,0.00,,,0.34,Wunderground v.1.15,2013-05-25 16:00:00,
2013-05-25 11:10:00,68.7,64.7,29.97,SE,142,5.0,5.0,87,0.00,,,0.34,Wunderground v.1.15,2013-05-25 16:10:00,
2013-05-25 11:20:00,69.6,65.2,29.96,SSE,156,4.0,4.0,86,0.00,,,0.34,Wunderground v.1.15,2013-05-25 16:20:00,
2013-05-25 11:30:00,70.2,65.8,29.97,ENE,68,5.0,6.0,86,0.00,,,0.34,Wunderground v.1.15,2013-05-25 16:30:00,
2013-05-25 11:40:00,70.3,65.9,29.97,ESE,110,7.0,7.0,86,0.00,,,0.34,Wunderground v.1.15,2013-05-25 16:40:00,
2013-05-25 11:50:00,70.5,66.4,29.96,SE,125,7.0,10.0,87,0.00,,,0.34,Wunderground v.1.15,2013-05-25 16:50:00,
2013-05-25 12:00:00,71.2,66.8,29.97,SE,128,8.0,10.0,86,0.00,,,0.34,Wunderground v.1.15,2013-05-25 17:00:00,
2013-05-25 12:10:00,71.8,67.0,29.97,SSE,148,6.0,9.0,85,0.00,,,0.34,Wunderground v.1.15,2013-05-25 17:10:00,
2013-05-25 12:20:00,72.7,68.6,29.97,South,173,6.0,6.0,87,0.00,,,0.34,Wunderground v.1.15,2013-05-25 17:20:00,
2013-05-25 12:25:00,72.8,66.3,29.97,ESE,115,7.0,7.0,80,0.00,,,0.34,Wunderground v.1.15,2013-05-25 17:25:00,
2013-05-25 12:35:00,73.3,66.8,29.97,SE,132,7.0,9.0,80,0.00,,,0.34,Wunderground v.1.15,2013-05-25 17:35:00,
2013-05-25 12:45:00,74.0,67.8,29.96,SE,131,7.0,7.0,81,0.00,,,0.34,Wunderground v.1.15,2013-05-25 17:45:00,
2013-05-25 12:55:00,74.5,67.2,29.96,ESE,121,8.0,13.0,78,0.00,,,0.34,Wunderground v.1.15,2013-05-25 17:55:00,
2013-05-25 13:01:00,74.9,67.9,29.95,ESE,121,8.0,10.0,79,0.00,,,0.34,Wunderground v.1.15,2013-05-25 18:01:00,
2013-05-25 13:10:00,75.9,68.5,29.95,SE,131,8.0,11.0,78,0.00,,,0.34,Wunderground v.1.15,2013-05-25 18:10:00,
2013-05-25 13:15:00,76.0,67.5,29.95,SE,141,8.0,11.0,75,0.00,,,0.34,Wunderground v.1.15,2013-05-25 18:15:00,
2013-05-25 13:25:00,76.6,67.7,29.95,SE,139,8.0,8.0,74,0.00,,,0.34,Wunderground v.1.15,2013-05-25 18:25:00,
2013-05-25 13:35:00,76.8,67.5,29.95,SE,131,9.0,9.0,73,0.00,,,0.34,Wunderground v.1.15,2013-05-25 18:35:00,
2013-05-25 13:45:00,77.2,67.9,29.95,SE,137,8.0,9.0,73,0.00,,,0.34,Wunderground v.1.15,2013-05-25 18:45:00,
2013-05-25 13:55:00,77.1,68.6,29.95,SE,132,7.0,7.0,75,0.00,,,0.34,Wunderground v.1.15,2013-05-25 18:55:00,
2013-05-25 14:00:00,77.5,68.6,29.94,SSE,162,7.0,8.0,74,0.00,,,0.34,Wunderground v.1.15,2013-05-25 19:00:00,
2013-05-25 14:10:00,77.7,68.0,29.94,SSE,156,9.0,9.0,72,0.00,,,0.34,Wunderground v.1.15,2013-05-25 19:10:00,
2013-05-25 14:15:00,77.4,68.1,29.94,SE,132,8.0,10.0,73,0.00,,,0.34,Wunderground v.1.15,2013-05-25 19:15:00,
2013-05-25 14:25:00,77.1,67.8,29.94,SSE,160,7.0,7.0,73,0.00,,,0.34,Wunderground v.1.15,2013-05-25 19:25:00,
2013-05-25 14:35:00,77.1,67.8,29.94,ESE,102,7.0,8.0,73,0.00,,,0.34,Wunderground v.1.15,2013-05-25 19:35:00,
2013-05-25 14:45:00,77.0,67.7,29.94,SE,131,7.0,7.0,73,0.00,,,0.34,Wunderground v.1.15,2013-05-25 19:45:00,
2013-05-25 14:55:00,76.7,68.2,29.94,SE,131,7.0,7.0,75,0.00,,,0.34,Wunderground v.1.15,2013-05-25 19:55:00,
2013-05-25 15:00:00,76.8,69.0,29.94,SE,141,6.0,6.0,77,0.00,,,0.34,Wunderground v.1.15,2013-05-25 20:00:00,
2013-05-25 15:10:00,77.7,69.5,29.94,ESE,107,6.0,6.0,76,0.00,,,0.34,Wunderground v.1.15,2013-05-25 20:10:00,
2013-05-25 15:20:00,78.2,69.6,29.93,ESE,107,5.0,8.0,75,0.00,,,0.34,Wunderground v.1.15,2013-05-25 20:20:00,
2013-05-25 15:30:00,78.2,69.6,29.93,SE,136,6.0,7.0,75,0.00,,,0.34,Wunderground v.1.15,2013-05-25 20:30:00,
2013-05-25 15:40:00,78.3,69.7,29.93,SE,142,7.0,8.0,75,0.00,,,0.34,Wunderground v.1.15,2013-05-25 20:40:00,
2013-05-25 15:45:00,78.6,69.2,29.93,SSE,159,8.0,10.0,73,0.00,,,0.34,Wunderground v.1.15,2013-05-25 20:45:00,
2013-05-25 15:55:00,78.5,69.9,29.93,SE,132,8.0,14.0,75,0.00,,,0.34,Wunderground v.1.15,2013-05-25 20:55:00,
2013-05-25 16:00:00,78.3,69.7,29.93,SSE,156,8.0,8.0,75,0.00,,,0.34,Wunderground v.1.15,2013-05-25 21:00:00,
2013-05-25 16:10:00,78.1,69.5,29.92,SSE,149,8.0,8.0,75,0.00,,,0.34,Wunderground v.1.15,2013-05-25 21:10:00,
2013-05-25 16:20:00,78.7,69.7,29.92,ESE,113,9.0,9.0,74,0.00,,,0.34,Wunderground v.1.15,2013-05-25 21:20:00,
2013-05-25 16:30:00,78.8,69.4,29.92,SE,134,9.0,9.0,73,0.00,,,0.34,Wunderground v.1.15,2013-05-25 21:30:00,
2013-05-25 16:40:00,78.6,69.6,29.92,SE,141,8.0,8.0,74,0.00,,,0.34,Wunderground v.1.15,2013-05-25 21:40:00,
2013-05-25 16:50:00,78.2,69.2,29.92,SSE,155,7.0,10.0,74,0.00,,,0.34,Wunderground v.1.15,2013-05-25 21:50:00,
2013-05-25 17:01:00,78.3,69.7,29.91,SSE,154,6.0,6.0,75,0.00,,,0.34,Wunderground v.1.15,2013-05-25 22:01:00,
2013-05-25 17:10:00,78.3,69.7,29.91,SSE,150,7.0,7.0,75,0.00,,,0.34,Wunderground v.1.15,2013-05-25 22:10:00,
2013-05-25 17:20:00,78.5,69.1,29.91,SSE,159,8.0,8.0,73,0.00,,,0.34,Wunderground v.1.15,2013-05-25 22:20:00,
2013-05-25 17:25:00,79.1,69.3,29.91,ESE,111,8.0,10.0,72,0.00,,,0.34,Wunderground v.1.15,2013-05-25 22:25:00,
2013-05-25 17:30:00,79.4,69.6,29.91,SSE,167,9.0,9.0,72,0.00,,,0.34,Wunderground v.1.15,2013-05-25 22:30:00,
2013-05-25 17:40:00,80.0,68.9,29.91,SE,131,9.0,9.0,69,0.00,,,0.34,Wunderground v.1.15,2013-05-25 22:40:00,
2013-05-25 17:45:00,79.9,69.2,29.91,SE,143,10.0,10.0,70,0.00,,,0.34,Wunderground v.1.15,2013-05-25 22:45:00,
2013-05-25 17:50:00,79.3,69.1,29.90,SE,131,8.0,10.0,71,0.00,,,0.34,Wunderground v.1.15,2013-05-25 22:50:00,
2013-05-25 18:01:00,78.7,69.3,29.90,SE,135,7.0,8.0,73,0.00,,,0.34,Wunderground v.1.15,2013-05-25 23:01:00,
2013-05-25 18:10:00,79.5,69.7,29.90,SSE,153,7.0,7.0,72,0.00,,,0.34,Wunderground v.1.15,2013-05-25 23:10:00,
2013-05-25 18:20:00,79.4,69.2,29.90,SE,124,8.0,11.0,71,0.00,,,0.34,Wunderground v.1.15,2013-05-25 23:20:00,
2013-05-25 18:30:00,78.4,68.2,29.89,SE,131,7.0,8.0,71,0.00,,,0.34,Wunderground v.1.15,2013-05-25 23:30:00,
2013-05-25 18:40:00,77.9,68.5,29.89,SE,142,6.0,6.0,73,0.00,,,0.34,Wunderground v.1.15,2013-05-25 23:40:00,
2013-05-25 18:50:00,77.5,68.6,29.89,SE,132,5.0,5.0,74,0.00,,,0.34,Wunderground v.1.15,2013-05-25 23:50:00,
2013-05-25 19:00:00,77.8,68.4,29.88,SSE,158,6.0,9.0,73,0.00,,,0.34,Wunderground v.1.15,2013-05-26 00:00:00,
2013-05-25 19:10:00,77.8,68.4,29.88,SE,138,7.0,7.0,73,0.00,,,0.34,Wunderground v.1.15,2013-05-26 00:10:00,
2013-05-25 19:20:00,77.5,68.6,29.88,SE,139,5.0,5.0,74,0.00,,,0.34,Wunderground v.1.15,2013-05-26 00:20:00,
2013-05-25 19:30:00,77.1,68.2,29.88,East,98,5.0,6.0,74,0.00,,,0.34,Wunderground v.1.15,2013-05-26 00:30:00,
2013-05-25 19:40:00,76.7,68.2,29.88,ESE,109,5.0,6.0,75,0.00,,,0.34,Wunderground v.1.15,2013-05-26 00:40:00,
2013-05-25 19:50:00,76.1,68.0,29.88,ESE,107,5.0,6.0,76,0.00,,,0.34,Wunderground v.1.15,2013-05-26 00:50:00,
2013-05-25 20:01:00,75.9,68.2,29.88,ESE,107,5.0,7.0,77,0.00,,,0.34,Wunderground v.1.15,2013-05-26 01:01:00,
2013-05-25 20:10:00,75.9,68.2,29.88,SE,129,5.0,5.0,77,0.00,,,0.34,Wunderground v.1.15,2013-05-26 01:10:00,
2013-05-25 20:15:00,75.6,68.3,29.88,SE,146,4.0,5.0,78,0.00,,,0.34,Wunderground v.1.15,2013-05-26 01:15:00,
2013-05-25 20:25:00,75.2,67.5,29.88,ESE,121,5.0,8.0,77,0.00,,,0.34,Wunderground v.1.15,2013-05-26 01:25:00,
2013-05-25 20:35:00,74.9,67.2,29.89,East,91,6.0,6.0,77,0.00,,,0.34,Wunderground v.1.15,2013-05-26 01:35:00,
2013-05-25 20:45:00,74.5,67.2,29.89,ESE,120,6.0,6.0,78,0.00,,,0.34,Wunderground v.1.15,2013-05-26 01:45:00,
2013-05-25 20:50:00,74.2,67.3,29.89,East,100,4.0,5.0,79,0.00,,,0.34,Wunderground v.1.15,2013-05-26 01:50:00,
2013-05-25 20:55:00,74.2,67.3,29.90,ESE,104,4.0,5.0,79,0.00,,,0.34,Wunderground v.1.15,2013-05-26 01:55:00,
2013-05-25 21:00:00,74.3,67.4,29.90,SE,133,5.0,5.0,79,0.00,,,0.34,Wunderground v.1.15,2013-05-26 02:00:00,
2013-05-25 21:10:00,74.2,67.6,29.90,ENE,71,5.0,5.0,80,0.00,,,0.34,Wunderground v.1.15,2013-05-26 02:10:00,
2013-05-25 21:20:00,73.8,67.2,29.91,SE,134,5.0,7.0,80,0.00,,,0.34,Wunderground v.1.15,2013-05-26 02:20:00,
2013-05-25 21:30:00,73.5,66.9,29.91,SE,143,6.0,7.0,80,0.00,,,0.34,Wunderground v.1.15,2013-05-26 02:30:00,
2013-05-25 21:35:00,73.5,66.9,29.91,SE,145,7.0,9.0,80,0.00,,,0.34,Wunderground v.1.15,2013-05-26 02:35:00,
2013-05-25 21:45:00,73.3,66.8,29.92,ESE,114,7.0,9.0,80,0.00,,,0.34,Wunderground v.1.15,2013-05-26 02:45:00,
2013-05-25 21:55:00,73.1,66.6,29.92,SSE,152,5.0,6.0,80,0.00,,,0.34,Wunderground v.1.15,2013-05-26 02:55:00,
2013-05-25 22:00:00,73.1,66.2,29.92,SE,132,7.0,7.0,79,0.00,,,0.34,Wunderground v.1.15,2013-05-26 03:00:00,
2013-05-25 22:10:00,72.6,65.7,29.93,SE,141,6.0,6.0,79,0.00,,,0.34,Wunderground v.1.15,2013-05-26 03:10:00,
2013-05-25 22:20:00,72.4,65.5,29.93,SSE,153,5.0,6.0,79,0.00,,,0.34,Wunderground v.1.15,2013-05-26 03:20:00,
2013-05-25 22:30:00,71.5,65.7,29.93,ESE,110,7.0,10.0,82,0.00,,,0.34,Wunderground v.1.15,2013-05-26 03:30:00,
2013-05-25 22:40:00,70.2,65.5,29.94,ESE,121,9.0,9.0,85,0.00,,,0.34,Wunderground v.1.15,2013-05-26 03:40:00,
2013-05-25 22:50:00,69.6,64.9,29.94,SE,132,9.0,9.0,85,0.00,,,0.34,Wunderground v.1.15,2013-05-26 03:50:00,
2013-05-25 23:01:00,69.3,64.9,29.94,East,98,9.0,9.0,86,0.00,,,0.34,Wunderground v.1.15,2013-05-26 04:01:00,
2013-05-25 23:05:00,69.1,64.7,29.94,East,100,7.0,9.0,86,0.00,,,0.34,Wunderground v.1.15,2013-05-26 04:05:00,
2013-05-25 23:10:00,69.0,64.6,29.94,ESE,103,7.0,7.0,86,0.00,,,0.34,Wunderground v.1.15,2013-05-26 04:10:00,
2013-05-25 23:15:00,68.8,64.4,29.94,SE,134,8.0,8.0,86,0.00,,,0.34,Wunderground v.1.15,2013-05-26 04:15:00,
2013-05-25 23:25:00,68.3,64.3,29.93,ESE,121,8.0,8.0,87,0.00,,,0.34,Wunderground v.1.15,2013-05-26 04:25:00,
2013-05-25 23:30:00,68.1,64.1,29.93,ESE,115,7.0,8.0,87,0.00,,,0.34,Wunderground v.1.15,2013-05-26 04:30:00,
2013-05-25 23:35:00,67.7,63.7,29.93,ESE,122,7.0,8.0,87,0.00,,,0.34,Wunderground v.1.15,2013-05-26 04:35:00,
2013-05-25 23:45:00,67.4,63.7,29.93,SSE,165,8.0,9.0,88,0.00,,,0.34,Wunderground v.1.15,2013-05-26 04:45:00,
2013-05-25 23:50:00,67.1,63.4,29.92,SE,131,8.0,8.0,88,0.00,,,0.34,Wunderground v.1.15,2013-05-26 04:50:00,
2013-05-25 23:55:00,66.9,63.2,29.92,SSE,161,7.0,8.0,88,0.00,,,0.34,Wunderground v.1.15,2013-05-26 04:55:00,